x

South Hatteras - 225 South Of Cape Hatteras (41002) Wave Buoy

11:50 - Thu 8th Dec 2016 All times are EST. -5 hours from GMT.

  • Sig Wave height 5.2ft
  • Swell Direction
  • Peak Period 5s
  • Average Period 5s
  • Wind
    22mph, 27mph gusts
  • Sea Temp 74°f
  • Aire Temp 70°f
  • Sea Pressure 1017.6mb
  • South Hatteras - 225 South Of Cape Hatteras
  • South Hatteras - 225 South Of Cape Hatteras

More Historic Weather Station data

Upgrade to MSW Pro to gain access to the past 30 days of data for over 8000 Wavebouys and Weather Stations around the globe.

Join Pro

Comparision Forecast

View Surf forecast
   
jue 12/08 11:50 5ft 5s 5s 22 27 mph 1017.6mb 74f 70f
10:50 4.5ft 10s 5s 18 22 mph 1017.4mb 74f 71f
9:50 5ft 5s 5s 20 22 mph 1017.3mb 74f 73f
8:50 4.5ft 5s 5s 18 20 mph 1017.3mb 74f 73f
7:50 4.5ft 9s 5s 18 22 mph 1017.2mb 74f 73f
6:50 4.5ft 9s 5s 13 16 mph 1017mb 74f 73f
5:50 4.5ft 10s 5s 9 11 mph 1016.7mb 74f 73f
4:50 4.5ft 9s 5s 13
mph
1016.5mb 74f 73f
3:50 4.5ft 9s 5s 11 16 mph 1016.3mb 74f 73f
2:50 4.5ft 9s 5s 16 18 mph 1016.1mb 74f 73f
1:50 4.5ft 10s 6s 16 18 mph 1016mb 74f 73f
12:50 4.5ft 10s 6s 13 16 mph 1016.3mb 74f 73f
11:50 4.5ft 10s 6s 13 16 mph 1017mb 74f 73f
10:50 4.5ft 10s 6s 13 16 mph 1018mb 74f 73f
9:50 4.5ft 10s 7s 9 11 mph 1018.6mb 74f 73f
8:50 4.5ft 10s 6s 4 7 mph 1018.3mb 74f 72f
7:50 5ft 10s 6s 4 7 mph 1017.9mb 74f 72f
6:50 5ft 11s 6s 4 7 mph 1017.7mb 73f 71f
5:50 5ft 10s 6s 4 7 mph 1017.6mb 73f 71f
4:50 5.5ft 10s 7s 7 9 mph 1017.4mb 73f 71f
3:50 5.5ft 7s 6s 11 13 mph 1017.3mb 73f 71f
2:50 6ft 7s 6s 11 13 mph 1017.2mb 73f 71f
mié 12/07 11:50 5.5ft 8s 6s 4 7 mph 1017.5mb 74f 70f
10:50 6ft 7s 6s 7 9 mph 1018mb 74f 70f
9:50 6ft 7s 6s 4 7 mph 1018.1mb 73f 70f
8:50 5.5ft 7s 6s 7 9 mph 1017.9mb 74f 70f
7:50 6.5ft 7s 6s 9 13 mph 1017.6mb 74f 70f
6:50 6ft 7s 6s 11 16 mph 1017.4mb 74f 70f
5:50 6.5ft 8s 6s 11 13 mph 1017mb 74f 70f
4:50 6ft 7s 6s 11 13 mph 1016.4mb 74f 70f
3:50 6.5ft 8s 6s 13 18 mph 1015.7mb 74f 71f
2:50 7ft 8s 6s 13 18 mph 1015.1mb 74f 71f
1:50 7ft 8s 6s 16 20 mph 1014.7mb 74f 71f
12:50 7ft 8s 6s 16 18 mph 1014.6mb 74f 71f
11:50 7.5ft 8s 6s 16 18 mph 1014.7mb 74f 71f
10:50 8ft 8s 6s 18 20 mph 1015.2mb 74f 71f
9:50 9ft 8s 7s 16 20 mph 1015.2mb 74f 72f
8:50 9ft 9s 7s 16 18 mph 1014.6mb 74f 71f
7:50 9ft 9s 7s 16 18 mph 1013.8mb 74f 72f
6:50 9.5ft 9s 7s 18 20 mph 1013.1mb 74f 72f
5:50 10ft 9s 7s 18 22 mph 1012.3mb 74f 72f
4:50 10ft 10s 7s 22 27 mph 1011.1mb 74f 73f
3:50 11ft 9s 7s 22 27 mph 1010.5mb 74f 73f
2:50 11.5ft 9s 7s 22 27 mph 1010mb 74f 73f
1:50 11ft 9s 7s 25 31 mph 1009.1mb 74f 76f
12:50 12ft 9s 7s 25 31 mph 1009mb 74f 76f
mar 12/06 11:50 12ft 9s 7s 27 31 mph 1009.2mb 74f 76f
10:50 11.5ft 9s 7s 27 36 mph 1009.1mb 74f 75f
9:50 12ft 9s 7s 27 34 mph 1008.9mb 74f 76f
8:50 11.5ft 8s 7s 27 34 mph 1008.6mb 74f 75f
7:50 12ft 8s 7s 27 34 mph 1009.1mb 74f 75f
6:50 10ft 8s 6s 27 31 mph 1009.2mb 74f 75f
5:50 9ft 7s 6s 29 36 mph 1008.8mb 74f 75f
4:50 8ft 7s 6s 27 31 mph 1009.1mb 74f 75f
3:50 7.5ft 7s 5s 16 18 mph 1010.5mb 74f 71f
2:50 6.5ft 7s 5s 27 31 mph 1009.1mb 74f 74f
1:50 6.5ft 7s 5s 22 27 mph 1009.9mb 74f 74f
12:50 6ft 6s 5s 25 31 mph 1010.8mb 74f 74f
11:50 5.5ft 6s 5s 22 27 mph 1011.9mb 74f 73f
10:50 6ft 6s 5s 18 20 mph 1014.2mb 74f 73f
9:50 5ft 7s 5s 25 29 mph 1014.3mb 74f 73f
8:50 4.5ft 7s 5s 22 25 mph 1014.2mb 74f 73f
7:50 5ft 6s 5s 18 25 mph 1014.4mb 74f 74f
6:50 6ft 6s 5s 18 22 mph 1014.2mb 74f 74f
5:50 5.5ft 6s 5s 18 22 mph 1014.5mb 74f 74f
4:50 5ft 6s 5s 20 25 mph 1013.6mb 74f 74f
3:50 6ft 6s 5s 20 25 mph 1013.4mb 74f 74f
2:50 5.5ft 7s 5s 18 25 mph 1013.7mb 74f 74f
1:50 5ft 7s 5s 22 27 mph 1013.8mb 74f 74f
12:50 5ft 6s 6s 20 25 mph 1014.2mb 74f 74f
lun 12/05 11:50 5ft 6s 5s 13 16 mph 1014.9mb 74f 72f
10:50 5ft 7s 5s 13 16 mph 1015.1mb 74f 73f
9:50 5.5ft 6s 6s 16 20 mph 1014.9mb 74f 71f
8:50 5.5ft 6s 5s 13 16 mph 1015.6mb 74f 72f
7:50 6ft 6s 5s 18 22 mph 1015.6mb 74f 71f
6:50 6ft 6s 5s 20 25 mph 1015mb 74f 73f
5:50 6ft 7s 5s 18 22 mph 1015.1mb 74f 73f
4:50 6.5ft 7s 5s 22 29 mph 1014.3mb 74f 74f
3:50 6.5ft 6s 5s 25 31 mph 1013.8mb 74f 74f
2:50 6ft 6s 5s 22 29 mph 1014mb 73f 73f
1:50 6.5ft 6s 5s 25 29 mph 1013.9mb 73f 73f
12:50 5.5ft 6s 5s 25 31 mph 1014.1mb 73f 73f
11:50 6ft 5s 5s 25 31 mph 1014.7mb 73f 72f
10:50 5ft 5s 5s 27 31 mph 1015.9mb 73f 72f
9:50 4.5ft 5s 5s 20 25 mph 1017.8mb 73f 72f
8:50 4.5ft 5s 5s 20 25 mph 1017.5mb 73f 72f
7:50 4.5ft 5s 5s 20 22 mph 1017.9mb 73f 71f
6:50 4.5ft 4s 5s 22 25 mph 1017.4mb 73f 71f